Location: North Runcton
(52.7000°N, 0.4333°E)
Time: 23:59:41
(UTC+00:00)

ALOS 2 - Pass Details

Date: 19 May 2025
Orbit: 630 x 632 km, 97.9° (Epoch: 18 June)

Event Time Altitude Azimuth Distance (km) Brightness Sun altitude
Exits shadow 22:19:06 16° 117° (ESE) 1,652 4.3 -14.4°
Maximum altitude 22:21:55 31° 64° (ENE) 1,112 3.9 -14.6°
Drops below altitude 10° 22:25:48 10° 2° (N) 2,028 6.3 -14.8°
Sets 22:28:11 0° 352° (N) 2,941 7.7 -14.9°
